GW1000 Weather Reports


time (UTC)temp
C
wind
direction
speed
KPH
gust
KPH
rain 1hr
cm
rain 24hr
cm
rain mn
cm
humidity
%
barometer
mb
20260508141736 24 357 12.9 16.1 0.00 0.00 0.00 56 1010.9
20260508141234 24 344 14.5 17.7 0.00 0.00 0.00 56 1010.8
20260508140731 24 337 11.3 20.9 0.00 0.00 0.00 57 1010.8
20260508140227 24 348 14.5 20.9 0.00 0.00 0.00 56 1011.1
20260508135723 25 341 8.0 17.7 0.00 0.00 0.00 56 1010.9
20260508135219 25 342 14.5 16.1 0.00 0.00 0.00 54 1011.0
20260508134710 25 358 9.7 16.1 0.00 0.00 0.00 54 1011.0
20260508134207 25 21 3.2 14.5 0.00 0.00 0.00 51 1011.0
20260508133704 25 333 14.5 17.7 0.00 0.00 0.00 52 1010.9
20260508133202 25 353 12.9 17.7 0.00 0.00 0.00 53 1010.9
20260508132659 25 357 11.3 17.7 0.00 0.00 0.00 53 1011.0
20260508132156 25 270 11.3 22.5 0.00 0.00 0.00 51 1011.1
20260508131651 25 337 14.5 22.5 0.00 0.00 0.00 51 1011.0
20260508131148 25 351 9.7 20.9 0.00 0.00 0.00 51 1011.1
20260508130645 25 13 9.7 16.1 0.00 0.00 0.00 53 1011.1
20260508130142 25 324 17.7 20.9 0.00 0.00 0.00 54 1011.2
20260508125637 25 286 17.7 20.9 0.00 0.00 0.00 53 1011.2
20260508125134 25 287 14.5 17.7 0.00 0.00 0.00 55 1011.1
20260508124633 25 329 16.1 17.7 0.00 0.00 0.00 54 1011.2
20260508124129 25 332 19.3 24.1 0.00 0.00 0.00 55 1011.1
20260508123628 25 325 14.5 17.7 0.00 0.00 0.00 54 1011.3
20260508123125 25 21 6.4 17.7 0.00 0.00 0.00 53 1011.4
20260508122621 25 250 14.5 22.5 0.00 0.00 0.00 53 1011.5
20260508122118 25 347 19.3 24.1 0.00 0.00 0.00 54 1011.5
20260508121617 25 231 17.7 22.5 0.00 0.00 0.00 53 1011.4
20260508121114 25 349 8.0 20.9 0.00 0.00 0.00 54 1011.5
20260508120611 25 306 16.1 22.5 0.00 0.00 0.00 53 1011.6
20260508120110 25 326 19.3 29.0 0.00 0.00 0.00 54 1011.6
20260508115607 25 329 19.3 29.0 0.00 0.00 0.00 54 1011.6
20260508115103 24 354 17.7 27.4 0.00 0.00 0.00 58 1011.5
20260508114601 24 267 16.1 22.5 0.00 0.00 0.00 57 1011.7
20260508114056 25 277 12.9 29.0 0.00 0.00 0.00 57 1011.8
20260508113554 25 33 3.2 14.5 0.00 0.00 0.00 56 1011.7
20260508113052 25 271 14.5 27.4 0.00 0.00 0.00 56 1011.9
20260508112548 24 312 14.5 27.4 0.00 0.00 0.00 57 1012.0
20260508112045 25 0 14.5 22.5 0.00 0.00 0.00 56 1012.1
20260508111542 25 356 11.3 17.7 0.00 0.00 0.00 56 1012.1
20260508111039 24 276 20.9 29.0 0.00 0.00 0.00 58 1012.1
20260508110537 24 283 29.0 32.2 0.00 0.00 0.00 59 1012.0
20260508110033 24 343 14.5 33.8 0.00 0.00 0.00 59 1012.0
20260508105533 25 348 22.5 27.4 0.00 0.00 0.00 58 1012.0
20260508105030 25 341 24.1 29.0 0.00 0.00 0.00 59 1011.9
20260508104528 25 354 16.1 32.2 0.00 0.00 0.00 57 1011.7
20260508104024 25 286 12.9 17.7 0.00 0.00 0.00 57 1011.9
20260508103521 25 358 14.5 25.7 0.00 0.00 0.00 60 1012.0
20260508103019 25 346 8.0 17.7 0.00 0.00 0.00 60 1011.8
20260508102517 25 334 17.7 27.4 0.00 0.00 0.00 59 1011.9
20260508102014 25 30 11.3 20.9 0.00 0.00 0.00 58 1011.8
20260508101511 26 3 19.3 25.7 0.00 0.00 0.00 57 1011.8
20260508101008 26 320 19.3 20.9 0.00 0.00 0.00 54 1011.8
20260508100506 25 350 9.7 17.7 0.00 0.00 0.00 54 1011.9
20260508100003 26 308 12.9 16.1 0.00 0.00 0.00 50 1012.0
20260508095500 26 349 14.5 22.5 0.00 0.00 0.00 48 1012.1
20260508094957 26 258 12.9 20.9 0.00 0.00 0.00 48 1012.0
20260508094454 26 338 3.2 11.3 0.00 0.00 0.00 46 1012.2
20260508093950 26 11 4.8 17.7 0.00 0.00 0.00 48 1012.2
20260508093448 25 309 8.0 12.9 0.00 0.00 0.00 50 1012.3
20260508092945 25 169 14.5 24.1 0.00 0.00 0.00 49 1012.4
20260508092443 25 325 8.0 12.9 0.00 0.00 0.00 50 1012.5
20260508091941 25 277 11.3 12.9 0.00 0.00 0.00 51 1012.4
20260508091438 25 325 14.5 24.1 0.00 0.00 0.00 51 1012.5
20260508090935 24 346 12.9 20.9 0.00 0.00 0.00 52 1012.6
20260508090434 24 286 8.0 11.3 0.00 0.00 0.00 53 1013.0
20260508085929 25 345 8.0 16.1 0.00 0.00 0.00 53 1012.8
20260508085426 25 252 11.3 12.9 0.00 0.00 0.00 52 1012.7
20260508084923 24 306 9.7 12.9 0.00 0.00 0.00 53 1012.8
20260508084419 24 355 3.2 11.3 0.00 0.00 0.00 53 1012.9
20260508083918 23 254 1.6 9.7 0.00 0.00 0.00 57 1012.9
20260508083415 23 275 3.2 9.7 0.00 0.00 0.00 56 1013.0
20260508082914 23 94 3.2 9.7 0.00 0.00 0.00 56 1013.2
20260508082412 23 72 8.0 12.9 0.00 0.00 0.00 55 1013.0
20260508081910 23 281 8.0 9.7 0.00 0.00 0.00 57 1013.0
20260508081406 23 195 1.6 3.2 0.00 0.00 0.00 57 1013.3
20260508080902 23 193 1.6 8.0 0.00 0.00 0.00 58 1013.3
20260508080401 23 194 3.2 4.8 0.00 0.00 0.00 58 1013.5
20260508075857 22 303 0.0 8.0 0.00 0.00 0.00 61 1013.5
20260508075354 22 351 8.0 12.9 0.00 0.00 0.00 61 1013.5
20260508074852 22 74 4.8 4.8 0.00 0.00 0.00 61 1013.5
20260508074348 22 52 8.0 9.7 0.00 0.00 0.00 61 1013.5
20260508073845 22 357 3.2 8.0 0.00 0.00 0.00 62 1013.4
20260508073343 22 307 1.6 4.8 0.00 0.00 0.00 62 1013.7
20260508072835 21 344 1.6 9.7 0.00 0.00 0.00 64 1013.7
20260508072331 21 355 0.0 4.8 0.00 0.00 0.00 64 1013.7
20260508071828 21 33 1.6 8.0 0.00 0.00 0.00 65 1013.5
20260508071327 21 346 8.0 9.7 0.00 0.00 0.00 65 1013.5
20260508070824 21 84 0.0 8.0 0.00 0.00 0.00 65 1013.6
20260508070322 21 0 4.8 4.8 0.00 0.00 0.00 66 1013.6
20260508065819 20 32 4.8 4.8 0.00 0.00 0.00 67 1013.7
20260508065317 20 295 1.6 8.0 0.00 0.00 0.00 68 1013.8
20260508064815 20 37 3.2 4.8 0.00 0.00 0.00 68 1013.7
20260508064313 20 108 1.6 4.8 0.00 0.00 0.00 69 1013.6
20260508063810 20 345 4.8 8.0 0.00 0.00 0.00 70 1013.5
20260508063308 20 276 3.2 4.8 0.00 0.00 0.00 70 1013.8
20260508062805 20 261 6.4 8.0 0.00 0.00 0.00 70 1013.6
20260508062306 20 7 0.0 3.2 0.00 0.00 0.00 72 1013.6
20260508061759 19 7 1.6 4.8 0.00 0.00 0.00 74 1013.8
20260508061256 19 333 0.0 8.0 0.00 0.00 0.00 74 1013.6
20260508060753 19 4 3.2 8.0 0.00 0.00 0.00 75 1013.9
20260508060251 19 350 3.2 11.3 0.00 0.00 0.00 75 1013.9
20260508055746 19 11 1.6 3.2 0.00 0.00 0.00 75 1014.0
20260508055243 18 347 4.8 4.8 0.00 0.00 0.00 75 1014.0
20260508054739 19 124 1.6 1.6 0.00 0.00 0.00 76 1014.1
20260508054238 18 77 3.2 4.8 0.00 0.00 0.00 77 1014.0
20260508053734 18 65 4.8 4.8 0.00 0.00 0.00 77 1014.0
20260508053231 18 17 1.6 8.0 0.00 0.00 0.00 78 1014.1
20260508052728 18 9 1.6 8.0 0.00 0.00 0.00 77 1013.9
20260508052225 18 93 0.0 1.6 0.00 0.00 0.00 77 1013.9
20260508051722 18 84 1.6 1.6 0.00 0.00 0.00 79 1014.0
20260508051217 18 40 0.0 1.6 0.00 0.00 0.00 79 1013.9
20260508050714 17 38 1.6 3.2 0.00 0.00 0.00 80 1014.0
20260508050212 17 26 0.0 1.6 0.00 0.00 0.00 80 1014.0
20260508045711 17 64 0.0 1.6 0.00 0.00 0.00 81 1014.2
20260508045210 17 145 1.6 1.6 0.00 0.00 0.00 81 1014.1
20260508044707 16 45 1.6 1.6 0.00 0.00 0.00 82 1014.3
20260508044203 16 25 0.0 0.0 0.00 0.00 0.00 83 1014.3
20260508043659 15 20 0.0 1.6 0.00 0.00 0.00 84 1014.2
20260508043157 15 21 0.0 1.6 0.00 0.00 0.00 85 1014.0
20260508042654 15 347 1.6 1.6 0.00 0.00 0.00 85 1013.9
20260508042151 15 96 0.0 3.2 0.00 0.00 0.00 86 1013.8
20260508041647 14 189 1.6 4.8 0.00 0.00 0.00 87 1013.6
20260508041144 13 102 1.6 3.2 0.00 0.00 0.00 88 1013.9
20260508040641 13 72 3.2 4.8 0.00 0.00 0.00 88 1013.8
20260508040138 13 89 3.2 3.2 0.00 0.00 0.00 88 1013.8
20260508035635 13 31 0.0 1.6 0.00 0.00 0.00 89 1013.9
20260508035133 13 145 4.8 4.8 0.00 0.00 0.00 89 1013.3
20260508034630 13 56 0.0 1.6 0.00 0.00 0.00 89 1013.4
20260508034126 13 92 0.0 1.6 0.00 0.00 0.00 89 1013.5
20260508033624 12 58 0.0 3.2 0.00 0.00 0.00 90 1013.2
20260508033122 12 58 0.0 1.6 0.00 0.00 0.00 90 1013.0
20260508032618 12 141 1.6 3.2 0.00 0.00 0.00 90 1013.0
20260508032116 12 104 3.2 3.2 0.00 0.00 0.00 90 1013.1
20260508031613 12 59 0.0 1.6 0.00 0.00 0.00 90 1012.9
20260508031108 12 60 0.0 1.6 0.00 0.00 0.00 90 1013.2
20260508030605 12 189 3.2 4.8 0.00 0.00 0.00 90 1013.2
20260508030103 12 108 3.2 4.8 0.00 0.00 0.00 90 1013.0
20260508025559 12 118 0.0 0.0 0.00 0.00 0.00 89 1013.3
20260508025056 12 63 0.0 0.0 0.00 0.00 0.00 89 1013.1
20260508024552 12 80 0.0 0.0 0.00 0.00 0.00 89 1013.0
20260508024050 12 84 0.0 1.6 0.00 0.00 0.00 89 1013.0
20260508023546 12 123 0.0 1.6 0.00 0.00 0.00 89 1013.1
20260508023043 12 38 0.0 1.6 0.00 0.00 0.00 89 1013.1
20260508022539 12 87 1.6 1.6 0.00 0.00 0.00 89 1012.8
20260508022036 12 80 0.0 0.0 0.00 0.00 0.00 89 1012.9
20260508021532 12 352 0.0 0.0 0.00 0.00 0.00 89 1012.7
20260508021028 12 31 0.0 1.6 0.00 0.00 0.00 89 1012.7
20260508020526 12 128 3.2 4.8 0.00 0.00 0.00 89 1012.5
20260508020023 12 59 0.0 1.6 0.00 0.00 0.00 89 1012.6
20260508015521 12 68 0.0 1.6 0.00 0.00 0.00 88 1012.4
20260508015018 12 178 1.6 3.2 0.00 0.00 0.00 89 1012.6
20260508014514 12 165 3.2 3.2 0.00 0.00 0.00 88 1012.6
20260508014010 12 34 0.0 1.6 0.00 0.00 0.00 88 1012.6
20260508013501 12 150 1.6 1.6 0.00 0.00 0.00 88 1012.6
20260508012958 12 188 0.0 1.6 0.00 0.00 0.00 88 1012.8
20260508012455 12 130 3.2 4.8 0.00 0.00 0.00 88 1012.8
20260508011953 12 112 4.8 4.8 0.00 0.00 0.00 88 1013.0
20260508011450 12 144 1.6 1.6 0.00 0.00 0.00 88 1012.7
20260508010947 12 76 0.0 0.0 0.00 0.00 0.00 87 1013.0
20260508010444 12 60 0.0 1.6 0.00 0.00 0.00 87 1012.9
20260508005942 12 70 0.0 0.0 0.00 0.00 0.00 87 1013.2
20260508005438 12 79 0.0 0.0 0.00 0.00 0.00 87 1013.1
20260508004934 12 70 0.0 0.0 0.00 0.00 0.00 87 1013.3
20260508004431 13 72 0.0 1.6 0.00 0.00 0.00 87 1013.3
20260508003927 13 91 3.2 4.8 0.00 0.00 0.00 87 1013.3
20260508003424 13 134 4.8 4.8 0.00 0.00 0.00 86 1013.2
20260508002921 13 111 1.6 4.8 0.00 0.00 0.00 86 1013.5
20260508002418 13 78 0.0 4.8 0.00 0.00 0.00 86 1013.4
20260508001914 13 57 0.0 0.0 0.00 0.00 0.00 86 1013.5
20260508001410 13 40 0.0 3.2 0.00 0.00 0.00 86 1013.3
20260508000907 13 30 0.0 1.6 0.00 0.00 0.00 86 1013.3
20260508000405 13 108 1.6 3.2 0.00 0.00 0.00 86 1013.2
20260507235900 13 157 1.6 3.2 0.00 0.00 0.00 86 1013.4
20260507235357 13 119 1.6 4.8 0.00 0.00 0.00 86 1013.3
20260507234854 13 51 1.6 3.2 0.00 0.00 0.00 86 1013.2
20260507234351 13 72 0.0 1.6 0.00 0.00 0.00 86 1013.4
20260507233848 13 114 3.2 8.0 0.00 0.00 0.00 86 1013.4
20260507233345 13 159 4.8 9.7 0.00 0.00 0.00 86 1013.3
20260507232843 13 82 4.8 8.0 0.00 0.00 0.00 86 1013.3
20260507232339 13 55 0.0 4.8 0.00 0.00 0.00 87 1013.4
20260507231837 13 82 0.0 0.0 0.00 0.00 0.00 87 1013.5
20260507231333 13 154 1.6 1.6 0.00 0.00 0.00 87 1013.5
20260507230829 12 128 1.6 1.6 0.00 0.00 0.00 87 1013.5
20260507230322 12 53 0.0 0.0 0.00 0.00 0.00 87 1013.6
20260507225821 12 82 0.0 0.0 0.00 0.00 0.00 87 1013.6
20260507225317 13 117 0.0 1.6 0.00 0.00 0.00 87 1013.6
20260507224813 13 93 3.2 3.2 0.00 0.00 0.00 87 1013.7
20260507224310 13 64 0.0 1.6 0.00 0.00 0.00 86 1013.8
20260507223807 13 19 0.0 1.6 0.00 0.00 0.00 86 1014.0
20260507223303 13 70 0.0 4.8 0.00 0.00 0.00 86 1013.6
20260507222801 13 69 3.2 4.8 0.00 0.00 0.00 86 1014.1
20260507222256 13 27 0.0 0.0 0.00 0.00 0.00 86 1014.1
20260507221754 13 57 0.0 1.6 0.00 0.00 0.00 86 1013.8
20260507221250 13 48 1.6 3.2 0.00 0.00 0.00 86 1014.1
20260507220746 13 31 0.0 1.6 0.00 0.00 0.00 86 1014.1
20260507220245 13 113 0.0 3.2 0.00 0.00 0.00 86 1014.0
20260507215741 13 73 0.0 0.0 0.00 0.00 0.00 86 1014.1
20260507215238 13 58 0.0 1.6 0.00 0.00 0.00 86 1014.2
20260507214735 13 66 0.0 0.0 0.00 0.00 0.00 86 1014.1
20260507214232 13 40 0.0 0.0 0.00 0.00 0.00 86 1014.1
20260507213727 13 43 0.0 0.0 0.00 0.00 0.00 86 1014.0
20260507213224 13 44 0.0 0.0 0.00 0.00 0.00 86 1013.9
20260507212720 13 46 0.0 0.0 0.00 0.00 0.00 85 1014.0
20260507212217 13 55 0.0 1.6 0.00 0.00 0.00 86 1013.7
20260507211714 13 37 0.0 0.0 0.00 0.00 0.00 85 1014.0
20260507211210 13 43 0.0 0.0 0.00 0.00 0.00 85 1013.6
20260507210707 13 56 1.6 3.2 0.00 0.00 0.00 86 1013.6
20260507210204 13 32 0.0 0.0 0.00 0.00 0.00 85 1013.6
20260507205700 13 32 0.0 0.0 0.00 0.00 0.00 85 1013.7
20260507205157 13 32 0.0 0.0 0.00 0.00 0.00 85 1013.5
20260507204653 13 32 0.0 0.0 0.00 0.00 0.00 85 1013.4
20260507204151 14 32 0.0 0.0 0.00 0.00 0.00 84 1013.4
20260507203649 14 32 0.0 0.0 0.00 0.00 0.00 84 1013.2
20260507203146 14 32 0.0 0.0 0.00 0.00 0.00 84 1013.4
20260507202641 14 32 0.0 0.0 0.00 0.00 0.00 84 1013.2
20260507202138 14 32 0.0 0.0 0.00 0.00 0.00 84 1013.1
20260507201633 14 32 0.0 0.0 0.00 0.00 0.00 84 1013.0
20260507201130 15 28 0.0 0.0 0.00 0.00 0.00 84 1013.0
20260507200626 15 28 0.0 0.0 0.00 0.00 0.00 83 1013.2
20260507200122 15 28 0.0 0.0 0.00 0.00 0.00 83 1013.0
20260507195620 15 27 0.0 1.6 0.00 0.00 0.00 83 1012.8
20260507195117 15 28 0.0 0.0 0.00 0.00 0.00 83 1013.0
20260507194613 15 28 0.0 0.0 0.00 0.00 0.00 82 1013.0
20260507194109 15 28 0.0 0.0 0.00 0.00 0.00 82 1013.0
20260507193606 15 28 0.0 0.0 0.00 0.00 0.00 81 1012.7
20260507193103 15 28 0.0 0.0 0.00 0.00 0.00 81 1012.9
20260507192559 15 28 0.0 0.0 0.00 0.00 0.00 81 1012.9
20260507192056 15 28 0.0 1.6 0.00 0.00 0.00 81 1013.0
20260507191551 15 28 0.0 0.0 0.00 0.00 0.00 81 1013.2
20260507191049 16 28 0.0 0.0 0.00 0.00 0.00 81 1013.2
20260507190546 16 28 0.0 0.0 0.00 0.00 0.00 80 1013.0
20260507190045 16 13 0.0 1.6 0.00 0.00 0.00 80 1013.3
20260507185543 16 15 1.6 1.6 0.00 0.00 0.00 80 1013.1
20260507185039 16 14 0.0 1.6 0.00 0.00 0.00 80 1013.0
20260507184537 16 17 0.0 1.6 0.00 0.00 0.00 79 1013.1
20260507184035 16 24 0.0 1.6 0.00 0.00 0.00 79 1013.1
20260507183531 16 26 0.0 1.6 0.00 0.00 0.00 79 1013.2
20260507183028 16 31 0.0 1.6 0.00 0.00 0.00 79 1013.1
20260507182524 16 41 0.0 3.2 0.00 0.00 0.00 79 1013.1
20260507182020 16 5 0.0 0.0 0.00 0.00 0.00 78 1013.3
20260507181517 16 4 1.6 1.6 0.00 0.00 0.00 78 1013.1
20260507181014 16 359 1.6 3.2 0.00 0.00 0.00 78 1013.0
20260507180510 17 341 4.8 4.8 0.00 0.00 0.00 77 1012.8
20260507180007 17 353 3.2 8.0 0.00 0.00 0.00 77 1013.0
20260507175503 17 356 4.8 8.0 0.00 0.00 0.00 77 1012.7
20260507175000 17 324 4.8 8.0 0.00 0.00 0.00 76 1012.8
20260507174458 17 353 3.2 4.8 0.00 0.00 0.00 76 1012.9
20260507173955 17 0 4.8 8.0 0.00 0.00 0.00 75 1012.9
20260507173452 17 358 3.2 4.8 0.00 0.00 0.00 75 1012.8
20260507172949 17 0 4.8 4.8 0.00 0.00 0.00 74 1012.8
20260507172445 17 13 3.2 9.7 0.00 0.00 0.00 74 1012.6
20260507171942 17 341 4.8 8.0 0.00 0.00 0.00 73 1012.4
20260507171437 17 11 3.2 9.7 0.00 0.00 0.00 73 1012.7
20260507170935 18 349 8.0 9.7 0.00 0.00 0.00 72 1012.5
20260507170431 18 351 3.2 9.7 0.00 0.00 0.00 71 1012.5
20260507165928 18 332 9.7 9.7 0.00 0.00 0.00 70 1012.4
20260507165424 18 2 4.8 9.7 0.00 0.00 0.00 70 1012.5
20260507164920 18 7 4.8 9.7 0.00 0.00 0.00 69 1012.2
20260507164417 18 5 6.4 9.7 0.00 0.00 0.00 68 1012.3
20260507163914 18 19 6.4 9.7 0.00 0.00 0.00 67 1012.3
20260507163412 18 36 8.0 12.9 0.00 0.00 0.00 66 1012.2
20260507162908 19 346 9.7 11.3 0.00 0.00 0.00 64 1012.3
20260507162403 19 335 6.4 9.7 0.00 0.00 0.00 63 1012.2
20260507161901 19 32 8.0 12.9 0.00 0.00 0.00 62 1012.3
20260507161357 19 27 4.8 17.7 0.00 0.00 0.00 61 1012.2
20260507160854 20 8 8.0 20.9 0.00 0.00 0.00 60 1012.2
20260507160349 20 359 8.0 17.7 0.00 0.00 0.00 59 1012.0
20260507155846 20 342 4.8 11.3 0.00 0.00 0.00 57 1012.1
20260507155342 20 358 11.3 20.9 0.00 0.00 0.00 56 1012.0
20260507154839 20 63 3.2 14.5 0.00 0.00 0.00 55 1012.0
20260507154336 20 339 11.3 24.1 0.00 0.00 0.00 55 1012.0
20260507153833 21 349 16.1 20.9 0.00 0.00 0.00 55 1012.0
20260507153329 21 326 8.0 11.3 0.00 0.00 0.00 55 1012.2
20260507152826 21 21 6.4 20.9 0.00 0.00 0.00 54 1012.1
20260507152322 21 40 8.0 14.5 0.00 0.00 0.00 54 1012.3
20260507151818 21 10 8.0 20.9 0.00 0.00 0.00 53 1012.0
20260507151315 21 17 11.3 25.7 0.00 0.00 0.00 55 1012.2
20260507150812 21 337 16.1 22.5 0.00 0.00 0.00 55 1012.3
20260507150308 21 6 8.0 14.5 0.00 0.00 0.00 55 1012.1
20260507145805 21 13 9.7 24.1 0.00 0.00 0.00 55 1012.2
20260507145301 21 334 16.1 32.2 0.00 0.00 0.00 58 1012.2
20260507144758 21 39 8.0 22.5 0.00 0.00 0.00 56 1012.0
20260507144256 21 5 12.9 25.7 0.00 0.00 0.00 56 1012.1
20260507143752 21 357 12.9 24.1 0.00 0.00 0.00 56 1012.1
20260507143249 21 338 24.1 29.0 0.00 0.00 0.00 55 1011.9
20260507142745 21 275 14.5 22.5 0.00 0.00 0.00 55 1011.9
20260507142242 22 3 6.4 16.1 0.00 0.00 0.00 54 1011.9